Erzincan, Turkey

12:12 AM +03 on August 23, 2017 (GMT +0300)
Erzincan

Weather History for LTCD - January, 2013

Change the Weather History Date:

Tuesday, January 22, 2013

  Actual Average Record
Temperature  
Mean Temperature 28 °F -  
Max Temperature 39 °F 38 °F - ()
Min Temperature 17 °F 22 °F - ()
Degree Days  
Heating Degree Days 37    
Moisture  
Dew Point 27 °F    
Average Humidity 88    
Maximum Humidity 100    
Minimum Humidity 62    
Precipitation  
Precipitation 0.02 in 0.04 in - ()
Sea Level Pressure  
Sea Level Pressure 30.13 in    
Wind  
Wind Speed 2 mph ()    
Max Wind Speed 6 mph    
Max Gust Speed -    
Visibility 3.8 miles    
Events Rain , Snow    
T = Trace of Precipitation, MM = Missing Value Source: Averaged Metar Reports

Daily Weather History Graph

Daily Weather History Graph

Search for Another Location

Airport or City:

Trip Planner

Search our weather history database for the weather conditions in past years. The results will help you decide how hot, cold, wet, or windy it might be!

Date:

Astronomy

Jan. 22, 2013 Rise Set
Actual Time 6:37 AM EET 4:29 PM EET
Civil Twilight 6:08 AM EET 4:58 PM EET
Nautical Twilight 5:35 AM EET 5:31 PM EET
Astronomical Twilight 5:03 AM EET 6:03 PM EET
Moon 12:36 PM EET 2:40 AM EET
Length of Visible Light 10h 50m
Length of Day
9h 51m
Waxing Gibbous, 80% of the Moon is Illuminated
Jan 22
Waxing Gibbous
Jan 27
Full
Feb 3
Last Quarter
Feb 10
New
Feb 17
First Quarter

Hourly Weather History & Observations

Time (EET) Temp. Windchill Dew Point Humidity Pressure Visibility Wind Dir Wind Speed Gust Speed Precip Events Conditions
12:50 AM 23.0 °F - 23.0 °F 100% 30.21 in 6.2 mi NW 1.2 mph - N/A   Scattered Clouds
1:50 AM 17.6 °F 12.3 °F 17.6 °F 100% 30.21 in 6.2 mi SE 3.5 mph - N/A   Scattered Clouds
2:00 AM 18 °F - 18 °F 99%  in 6 mi SE 3.5 mph - -   Partly Cloudy
2:50 AM 21.2 °F - 21.2 °F 100% 30.21 in 6.2 mi Calm Calm - N/A   Scattered Clouds
3:50 AM 23.0 °F - 23.0 °F 100% 30.21 in 6.2 mi Variable 1.2 mph - N/A   Mostly Cloudy
4:50 AM 23.0 °F - 21.2 °F 93% 30.21 in 6.2 mi SSE 2.3 mph - N/A   Mostly Cloudy
5:50 AM 23.0 °F - 23.0 °F 100% 30.18 in 6.2 mi Variable 1.2 mph - N/A   Mostly Cloudy
6:50 AM 24.8 °F 19.1 °F 23.0 °F 93% 30.18 in 1.2 mi East 4.6 mph - N/A   Mostly Cloudy
7:50 AM 23.0 °F 18.4 °F 23.0 °F 100% 30.18 in 1.2 mi WNW 3.5 mph - N/A   Mostly Cloudy
8:00 AM 23 °F - 23 °F 100%  in 1 mi WNW 3.5 mph - -   Mist
8:50 AM 24.8 °F - 24.8 °F 100% 30.18 in 1.2 mi Calm Calm - N/A   Mostly Cloudy
9:50 AM 28.4 °F - 26.6 °F 93% 30.18 in 1.2 mi Variable 2.3 mph - N/A   Mostly Cloudy
10:50 AM 33.8 °F - 26.6 °F 75% 30.15 in 1.2 mi Calm Calm - N/A   Mist
11:50 AM 37.4 °F - 28.4 °F 70% 30.12 in 1.7 mi Variable 1.2 mph - N/A   Mist
12:50 PM 35.6 °F - 28.4 °F 75% 30.09 in 2.8 mi Calm Calm - N/A   Mostly Cloudy
1:50 PM 37.4 °F - 28.4 °F 70% 30.09 in 3.7 mi Variable 1.2 mph - N/A   Mostly Cloudy
2:00 PM 37 °F - 29 °F 62%  in 4 mi East 1.2 mph - -   Mist
2:50 PM 35.6 °F - 30.2 °F 81% 30.09 in 3.7 mi Variable 1.2 mph - N/A   Mostly Cloudy
3:50 PM 35.6 °F 31.7 °F 30.2 °F 81% 30.09 in 3.7 mi NE 4.6 mph - N/A   Mostly Cloudy
4:50 PM 35.6 °F - 30.2 °F 81% 30.09 in 3.7 mi Variable 2.3 mph - N/A   Mostly Cloudy
5:50 PM 35.6 °F - 32.0 °F 87% 30.06 in 4.3 mi Variable 1.2 mph - N/A   Mostly Cloudy
6:50 PM 37.4 °F 33.8 °F 32.0 °F 81% 30.09 in 4.3 mi NNE 4.6 mph - N/A Rain , Snow Light Snow
7:50 PM 37.4 °F 34.9 °F 33.8 °F 87% 30.06 in 4.3 mi NW 3.5 mph - N/A Rain , Snow Light Snow
8:00 PM 37 °F - 33 °F 80%  in 4 mi NW 3.5 mph - - Snow Light Snow
8:50 PM 35.6 °F - 32.0 °F 87% 30.06 in 4.3 mi Variable 1.2 mph - N/A   Mostly Cloudy
9:50 PM 35.6 °F 32.8 °F 32.0 °F 87% 30.06 in 4.3 mi NNW 3.5 mph - N/A   Mostly Cloudy
10:50 PM 35.6 °F 30.7 °F 32.0 °F 87% 30.06 in 4.3 mi NW 5.8 mph - N/A   Mostly Cloudy
11:50 PM 33.8 °F - 33.8 °F 100% 30.04 in 4.3 mi Variable 2.3 mph - N/A   Mostly Cloudy